sat.trackr.live / text

‹ back to catalog

STARLINK-31246

NORAD 58835 · 2024-017K

PAYLOAD ACTIVE UNKNOWN

§ Identity

Operator
Country
US
Launch date
2024-01-24
Launch site
AFWTR
Launch vehicle
Mass (kg)
RCS (m²)

Purposes: comms

External: N2YO · Heavens-Above · Gunter

§ Orbital elements

Epoch: 2026-05-25T03:33:35.013024Z

Period
94.10 min
Inclination
53.1596°
Eccentricity
0.0001549
Mean motion
15.30228808 rev/d
Perigee alt
474.1 km
Apogee alt
476.2 km
Semi-major
6,853.3 km
B*
1.6501e-4
RAAN
209.0867°
Arg perigee
115.4893°
Mean anomaly
244.6269°
Rev number
13,176

§ Raw data

STARLINK-312461 58835U 24017K   26145.14832191  .00004535  00000+0  16501-3 0  99922 58835  53.1596 209.0867 0001549 115.4893 244.6269 15.30228808131760

JSON: /api/v1/satellites/58835 · /tle

For live sub-satellite position, see the globe view (requires WebGL).

§ Visibility from observer

Set your observer location to see the next 7 days of passes ≥ 10°. The values pass through the URL so the page stays shareable.

No JS? Fill the form by hand. The geolocation button needs JavaScript.